Terug naar catalogus

OPS 8737

ActiefNavigatieLEO
NORAD 14690·PAYLOAD·🇺🇸 United States

Gelanceerd Feb 5, 1984 vanaf Vandenberg Space Force Base

Loading…

Volgende Passages (komende 24 uur)

TLE

VersSource: Space-Track

Epoch: Sep 14, 2026, 09:27 UTC

1 14690U 84012A   26257.39400308  .00003307  00000-0  25797-3 0  9990
2 14690  63.3051 242.0652 0608560 126.8009 239.0501 14.16525723120595

Volg OPS 8737 in realtime met AllMySat

Download on the App Store